• In Portugal
  • List of Countries
  • For 7 days
  • Water Temperature
  • Satellite Maps
  • Weather Map
  • Weather Widgets
  • user-avatar
    Login

    Hourly Weather Chien

    Today, 23 May, Wednesday

    Time Temperature Precipitation Wind Pressure Humidity
    00:00 +25°C° 0 mm 1 mps 741 mmHg 98%
    01:00 +25°C° 0 mm 1 mps 741 mmHg 99%
    02:00 +23°C° 0 mm 0 mps 740 mmHg 99%
    03:00 +23°C° 0 mm 0 mps 740 mmHg 99%
    04:00 +23°C° 0 mm 0 mps 740 mmHg 99%
    05:00 +24°C° 0 mm 1 mps 740 mmHg 99%
    06:00 +26°C° 0 mm 1 mps 741 mmHg 93%
    07:00 +27°C° 0 mm 1 mps 741 mmHg 87%
    08:00 +29°C° 0 mm 1 mps 741 mmHg 82%
    09:00 +30°C° 0 mm 1 mps 741 mmHg 73%
    10:00 +32°C° 0 mm 1 mps 741 mmHg 64%
    11:00 +34°C° 0 mm 1 mps 741 mmHg 56%
    12:00 +34°C° 0.9 mm 1 mps 741 mmHg 60%
    13:00 +33°C° 0.9 mm 1 mps 740 mmHg 65%
    14:00 +33°C° 0.9 mm 1 mps 739 mmHg 70%
    15:00 +31°C° 1.4 mm 1 mps 739 mmHg 77%
    16:00 +30°C° 1.4 mm 1 mps 739 mmHg 84%
    17:00 +28°C° 1.4 mm 1 mps 740 mmHg 92%
    18:00 +28°C° 0.9 mm 1 mps 740 mmHg 93%
    19:00 +27°C° 0.9 mm 1 mps 741 mmHg 95%
    20:00 +26°C° 0.9 mm 1 mps 741 mmHg 96%
    21:00 +26°C° 0.1 mm 1 mps 741 mmHg 96%
    22:00 +26°C° 0.1 mm 1 mps 741 mmHg 97%
    23:00 +25°C° 0.1 mm 1 mps 741 mmHg 97%

    Tomorrow, 24 May, Thursday

    Time Temperature Precipitation Wind Pressure Humidity
    00:00 +25°C° 0 mm 1 mps 741 mmHg 98%
    01:00 +25°C° 0 mm 1 mps 741 mmHg 98%
    02:00 +25°C° 0 mm 1 mps 740 mmHg 98%
    03:00 +23°C° 0.8 mm 0 mps 740 mmHg 98%
    04:00 +23°C° 0.8 mm 0 mps 741 mmHg 99%
    05:00 +23°C° 0.8 mm 0 mps 741 mmHg 99%
    06:00 +24°C° 0.6 mm 0 mps 741 mmHg 94%
    07:00 +27°C° 0.6 mm 1 mps 741 mmHg 89%
    08:00 +28°C° 0.6 mm 1 mps 741 mmHg 84%
    09:00 +30°C° 1 mm 1 mps 741 mmHg 79%
    10:00 +31°C° 1 mm 1 mps 741 mmHg 73%
    11:00 +33°C° 1 mm 1 mps 741 mmHg 68%
    12:00 +32°C° 1.6 mm 1 mps 740 mmHg 73%
    13:00 +31°C° 1.6 mm 1 mps 740 mmHg 79%
    14:00 +30°C° 1.6 mm 1 mps 739 mmHg 85%
    15:00 +29°C° 1.5 mm 1 mps 739 mmHg 88%
    16:00 +28°C° 1.5 mm 1 mps 739 mmHg 91%
    17:00 +27°C° 1.5 mm 1 mps 740 mmHg 95%
    18:00 +27°C° 1.7 mm 1 mps 740 mmHg 96%
    19:00 +26°C° 1.7 mm 1 mps 741 mmHg 96%
    20:00 +25°C° 1.7 mm 1 mps 741 mmHg 97%
    21:00 +25°C° 0.2 mm 1 mps 741 mmHg 97%
    22:00 +25°C° 0.2 mm 1 mps 741 mmHg 98%
    23:00 +25°C° 0.2 mm 1 mps 741 mmHg 98%

    Day after tomorrow, 25 May, Friday

    Time Temperature Precipitation Wind Pressure Humidity
    00:00 +25°C° 0 mm 1 mps 740 mmHg 98%
    01:00 +25°C° 0 mm 1 mps 740 mmHg 98%
    02:00 +24°C° 0 mm 1 mps 739 mmHg 99%
    03:00 +24°C° 0 mm 1 mps 739 mmHg 99%
    04:00 +22°C° 0 mm 0 mps 740 mmHg 99%
    05:00 +22°C° 0 mm 0 mps 740 mmHg 99%
    06:00 +23°C° 0 mm 0 mps 740 mmHg 95%
    07:00 +24°C° 0 mm 0 mps 741 mmHg 91%
    08:00 +28°C° 0 mm 1 mps 741 mmHg 86%
    09:00 +29°C° 0.1 mm 1 mps 741 mmHg 77%
    10:00 +31°C° 0.1 mm 1 mps 741 mmHg 68%
    11:00 +33°C° 0.1 mm 1 mps 741 mmHg 58%
    12:00 +34°C° 0.4 mm 2 mps 740 mmHg 59%
    13:00 +34°C° 0.4 mm 2 mps 739 mmHg 59%
    14:00 +34°C° 0.4 mm 2 mps 738 mmHg 59%
    15:00 +31°C° 0.8 mm 2 mps 738 mmHg 70%
    16:00 +30°C° 0.8 mm 2 mps 739 mmHg 81%
    17:00 +28°C° 0.8 mm 1 mps 739 mmHg 91%
    18:00 +27°C° 0.6 mm 1 mps 739 mmHg 93%
    19:00 +26°C° 0.6 mm 1 mps 740 mmHg 95%
    20:00 +25°C° 0.6 mm 1 mps 741 mmHg 97%
    21:00 +25°C° 0 mm 1 mps 741 mmHg 98%
    22:00 +25°C° 0 mm 1 mps 741 mmHg 98%
    23:00 +25°C° 0 mm 1 mps 741 mmHg 98%

    26 May, Saturday

    Time Temperature Precipitation Wind Pressure Humidity
    00:00 +25°C° 0 mm 1 mps 740 mmHg 98%
    01:00 +24°C° 0 mm 1 mps 740 mmHg 99%
    02:00 +24°C° 0 mm 1 mps 739 mmHg 99%
    03:00 +24°C° 0 mm 1 mps 739 mmHg 99%
    04:00 +24°C° 0 mm 1 mps 739 mmHg 99%
    05:00 +24°C° 0 mm 1 mps 739 mmHg 98%
    06:00 +25°C° 0 mm 1 mps 740 mmHg 96%
    07:00 +26°C° 0 mm 1 mps 740 mmHg 93%
    08:00 +27°C° 0 mm 1 mps 741 mmHg 90%
    09:00 +28°C° 0.1 mm 1 mps 741 mmHg 83%
    10:00 +29°C° 0.1 mm 1 mps 741 mmHg 77%
    11:00 +30°C° 0.1 mm 1 mps 740 mmHg 70%
    12:00 +31°C° 0.2 mm 1 mps 740 mmHg 67%
    13:00 +32°C° 0.2 mm 1 mps 739 mmHg 64%
    14:00 +33°C° 0.2 mm 1 mps 739 mmHg 61%
    15:00 +31°C° 1.2 mm 1 mps 739 mmHg 70%
    16:00 +30°C° 1.2 mm 1 mps 739 mmHg 79%
    17:00 +28°C° 1.2 mm 1 mps 739 mmHg 88%
    18:00 +27°C° 0.1 mm 1 mps 740 mmHg 90%
    19:00 +26°C° 0.1 mm 1 mps 740 mmHg 93%
    20:00 +26°C° 0.1 mm 1 mps 741 mmHg 95%
    21:00 +25°C° 0 mm 1 mps 741 mmHg 96%
    22:00 +25°C° 0 mm 1 mps 741 mmHg 97%
    23:00 +25°C° 0 mm 1 mps 741 mmHg 97%

    27 May, Sunday

    Time Temperature Precipitation Wind Pressure Humidity
    00:00 +25°C° 0 mm 1 mps 741 mmHg 98%
    01:00 +25°C° 0 mm 1 mps 740 mmHg 98%
    02:00 +25°C° 0 mm 1 mps 740 mmHg 98%
    03:00 +25°C° 0 mm 1 mps 740 mmHg 98%
    04:00 +24°C° 0 mm 1 mps 740 mmHg 98%
    05:00 +24°C° 0 mm 1 mps 740 mmHg 99%
    06:00 +25°C° 0 mm 1 mps 741 mmHg 95%
    07:00 +26°C° 0 mm 1 mps 741 mmHg 91%
    08:00 +27°C° 0 mm 1 mps 742 mmHg 87%
    09:00 +28°C° 0.3 mm 1 mps 742 mmHg 81%
    10:00 +30°C° 0.3 mm 1 mps 741 mmHg 75%
    11:00 +31°C° 0.3 mm 1 mps 741 mmHg 69%
    12:00 +31°C° 0.9 mm 1 mps 741 mmHg 69%
    13:00 +31°C° 0.9 mm 1 mps 740 mmHg 69%
    14:00 +31°C° 0.9 mm 1 mps 739 mmHg 70%
    15:00 +30°C° 2.9 mm 1 mps 739 mmHg 78%
    16:00 +28°C° 2.9 mm 1 mps 740 mmHg 86%
    17:00 +26°C° 2.9 mm 2 mps 740 mmHg 95%
    18:00 +26°C° 1.4 mm 1 mps 741 mmHg 96%
    19:00 +25°C° 1.4 mm 1 mps 741 mmHg 97%
    20:00 +25°C° 1.4 mm 1 mps 742 mmHg 98%
    21:00 +25°C° 0.1 mm 1 mps 742 mmHg 98%
    22:00 +25°C° 0.1 mm 1 mps 742 mmHg 98%
    23:00 +25°C° 0.1 mm 1 mps 742 mmHg 98%

    28 May, Monday

    Time Temperature Precipitation Wind Pressure Humidity
    00:00 +24°C° 0.1 mm 1 mps 741 mmHg 98%
    01:00 +24°C° 0.1 mm 1 mps 741 mmHg 99%
    02:00 +24°C° 0.1 mm 1 mps 740 mmHg 99%
    03:00 +24°C° 0 mm 1 mps 741 mmHg 99%
    04:00 +22°C° 0 mm 0 mps 741 mmHg 99%
    05:00 +22°C° 0 mm 0 mps 741 mmHg 99%
    06:00 +23°C° 0 mm 0 mps 742 mmHg 97%
    07:00 +23°C° 0 mm 0 mps 742 mmHg 95%
    08:00 +24°C° 0 mm 0 mps 743 mmHg 93%
    09:00 +26°C° 0.1 mm 0 mps 742 mmHg 83%
    10:00 +30°C° 0.1 mm 1 mps 742 mmHg 73%
    11:00 +32°C° 0.1 mm 1 mps 742 mmHg 63%
    12:00 +32°C° 0.9 mm 1 mps 741 mmHg 68%
    13:00 +31°C° 0.9 mm 1 mps 740 mmHg 72%
    14:00 +31°C° 0.9 mm 1 mps 740 mmHg 77%
    15:00 +29°C° 2 mm 1 mps 740 mmHg 83%
    16:00 +28°C° 2 mm 1 mps 740 mmHg 89%
    17:00 +27°C° 2 mm 1 mps 740 mmHg 95%
    18:00 +26°C° 0.3 mm 1 mps 741 mmHg 96%
    19:00 +26°C° 0.3 mm 1 mps 741 mmHg 96%
    20:00 +25°C° 0.3 mm 1 mps 742 mmHg 97%
    21:00 +25°C° 0 mm 1 mps 742 mmHg 98%
    22:00 +25°C° 0 mm 1 mps 742 mmHg 98%
    23:00 +24°C° 0 mm 1 mps 741 mmHg 98%
    Show more